Alma, MI

2:27 AM EDT on May 27, 2018 (GMT -0400)
Gratiot Community

Weather History for KAMN - July, 2013

Change the Weather History Date:

Tuesday, July 2, 2013

  Actual Average Record
Temperature  
Mean Temperature 64 °F -  
Max Temperature 72 °F 80 °F 97 °F (1963)
Min Temperature 55 °F 56 °F 37 °F (2001)
Degree Days  
Heating Degree Days 2    
Growing Degree Days 14 (Base 50)    
Moisture  
Dew Point 51 °F    
Average Humidity 66    
Maximum Humidity 91    
Minimum Humidity 44    
Precipitation  
Precipitation 0.00 in - - ()
Sea Level Pressure  
Sea Level Pressure 30.10 in    
Wind  
Wind Speed 7 mph (NNE)    
Max Wind Speed 14 mph    
Max Gust Speed 22 mph    
Visibility 10 miles    
Events Rain    
Averages and records for this station are not official NWS values.
T = Trace of Precipitation, MM = Missing Value Source: NWS Daily Summary

Daily Weather History Graph

Daily Weather History Graph

Search for Another Location

Airport or City:

Astronomy

Jul. 02, 2013 Rise Set
Actual Time 6:02 AM EDT 9:22 PM EDT
Civil Twilight 5:27 AM EDT 9:57 PM EDT
Nautical Twilight 4:41 AM EDT 10:43 PM EDT
Astronomical Twilight 3:44 AM EDT 11:40 PM EDT
Moon 2:10 AM EDT (7/2) 4:31 PM EDT (7/2)
Length of Visible Light 16h 30m
Length of Day
15h 19m
Waning Crescent, 26% of the Moon is Illuminated
Jul 2
Waning Crescent
Jul 8
New
Jul 15
First Quarter
Jul 22
Full
Jul 29
Last Quarter

Hourly Weather History & Observations

Time (EDT) Temp. Dew Point Humidity Pressure Visibility Wind Dir Wind Speed Gust Speed Precip Events Conditions
12:15 AM 60.6 °F 38.5 °F 44% 30.12 in 10.0 mi NNE 5.8 mph - N/A   Overcast
12:35 AM 60.6 °F 38.5 °F 44% 30.11 in 10.0 mi North 5.8 mph - N/A   Overcast
12:55 AM 60.3 °F 38.5 °F 44% 30.10 in 10.0 mi NNE 6.9 mph - N/A   Overcast
1:15 AM 60.1 °F 38.7 °F 45% 30.10 in 10.0 mi NNE 6.9 mph - N/A   Overcast
1:35 AM 60.1 °F 38.7 °F 45% 30.10 in 10.0 mi North 6.9 mph - N/A   Overcast
1:55 AM 59.9 °F 39.6 °F 47% 30.09 in 10.0 mi North 5.8 mph - N/A   Overcast
2:15 AM 59.5 °F 40.1 °F 49% 30.10 in 10.0 mi North 5.8 mph - N/A   Overcast
2:35 AM 59.4 °F 40.6 °F 50% 30.10 in 10.0 mi North 4.6 mph - N/A   Overcast
2:55 AM 59.2 °F 41.7 °F 52% 30.11 in 10.0 mi North 3.5 mph - N/A   Overcast
3:15 AM 59.0 °F 42.8 °F 55% 30.11 in 10.0 mi North 4.6 mph - N/A   Overcast
3:35 AM 58.6 °F 43.2 °F 56% 30.10 in 10.0 mi North 5.8 mph - N/A   Overcast
3:55 AM 57.7 °F 45.0 °F 62% 30.10 in 10.0 mi North 5.8 mph - N/A   Drizzle
4:15 AM 57.0 °F 46.8 °F 69% 30.10 in 10.0 mi North 4.6 mph - N/A Rain Light Rain
4:35 AM 56.3 °F 48.7 °F 76% 30.10 in 10.0 mi North 5.8 mph - N/A Rain Light Rain
4:55 AM 55.4 °F 49.5 °F 80% 30.10 in 10.0 mi North 4.6 mph - N/A   Overcast
5:14 AM 55.8 °F 49.5 °F 79% 30.10 in 10.0 mi North 6.9 mph - N/A   Overcast
5:35 AM 56.3 °F 48.7 °F 76% 30.10 in 10.0 mi North 6.9 mph - N/A   Overcast
5:55 AM 56.3 °F 49.3 °F 77% 30.10 in 10.0 mi North 6.9 mph - N/A   Overcast
6:15 AM 56.5 °F 49.3 °F 77% 30.10 in 10.0 mi North 4.6 mph - N/A   Overcast
6:35 AM 56.5 °F 49.6 °F 78% 30.10 in 10.0 mi North 5.8 mph - N/A   Overcast
6:55 AM 56.7 °F 50.2 °F 79% 30.10 in 10.0 mi North 5.8 mph - N/A   Overcast
7:15 AM 56.7 °F 50.9 °F 81% 30.10 in 10.0 mi North 5.8 mph - N/A Rain Light Rain
7:34 AM 56.7 °F 51.8 °F 84% 30.10 in 10.0 mi North 8.1 mph - N/A Rain Rain
7:55 AM 56.8 °F 52.3 °F 85% 30.11 in 10.0 mi NNE 5.8 mph - N/A   Overcast
8:15 AM 57.0 °F 52.9 °F 86% 30.11 in 10.0 mi NNE 5.8 mph - N/A   Overcast
8:36 AM 57.2 °F 53.6 °F 88% 30.11 in 10.0 mi NNE 4.6 mph - N/A   Overcast
8:55 AM 57.2 °F 54.3 °F 90% 30.11 in 10.0 mi NNE 4.6 mph - N/A Rain Light Rain
9:15 AM 57.6 °F 54.7 °F 90% 30.11 in 10.0 mi NNE 4.6 mph - N/A   Overcast
9:35 AM 58.3 °F 54.9 °F 88% 30.12 in 10.0 mi NE 4.6 mph - N/A   Overcast
9:55 AM 59.0 °F 55.6 °F 88% 30.12 in 10.0 mi NNE 4.6 mph - N/A Rain Light Rain
10:15 AM 59.5 °F 56.3 °F 89% 30.12 in 10.0 mi North - - N/A   Overcast
10:35 AM 60.4 °F 56.3 °F 86% 30.11 in 10.0 mi NNE 6.9 mph - N/A   Overcast
10:55 AM 60.3 °F 56.5 °F 87% 30.11 in 7.0 mi NE 5.8 mph - N/A Rain Light Rain
11:15 AM 59.9 °F 57.2 °F 91% 30.10 in 10.0 mi NNE 9.2 mph - N/A Rain Light Rain
11:35 AM 61.2 °F 58.1 °F 90% 30.11 in 10.0 mi NNE 6.9 mph - N/A   Mostly Cloudy
11:55 AM 64.4 °F 59.2 °F 83% 30.11 in 10.0 mi NNE 8.1 mph - N/A   Mostly Cloudy
12:15 PM 66.2 °F 58.8 °F 77% 30.11 in 10.0 mi NNE 10.4 mph 17.3 mph N/A   Mostly Cloudy
12:35 PM 65.8 °F 58.6 °F 78% 30.11 in 10.0 mi NNE 8.1 mph - N/A   Overcast
12:55 PM 66.7 °F 57.2 °F 71% 30.11 in 10.0 mi ENE 11.5 mph - N/A   Overcast
1:15 PM 67.3 °F 58.3 °F 73% 30.11 in 10.0 mi NNE 6.9 mph - N/A   Overcast
1:35 PM 68.9 °F 59.2 °F 71% 30.10 in 10.0 mi NE 8.1 mph - N/A   Overcast
1:55 PM 70.9 °F 59.0 °F 66% 30.10 in 10.0 mi NE 13.8 mph 17.3 mph N/A   Mostly Cloudy
2:15 PM 70.9 °F 58.1 °F 64% 30.09 in 10.0 mi NE 10.4 mph - N/A   Scattered Clouds
2:35 PM 70.7 °F 57.7 °F 63% 30.09 in 10.0 mi NE 11.5 mph - N/A   Mostly Cloudy
2:56 PM 70.5 °F 57.6 °F 63% 30.09 in 10.0 mi NE 12.7 mph 17.3 mph N/A   Overcast
3:15 PM 72.3 °F 58.3 °F 61% 30.08 in 10.0 mi NNE 12.7 mph 17.3 mph N/A   Scattered Clouds
3:35 PM 72.9 °F 57.6 °F 59% 30.08 in 10.0 mi ENE 9.2 mph 19.6 mph N/A   Clear
3:55 PM 72.3 °F 54.3 °F 53% 30.08 in 10.0 mi NE 13.8 mph 20.7 mph N/A   Mostly Cloudy
4:15 PM 72.0 °F 54.1 °F 53% 30.08 in 10.0 mi NE 10.4 mph 21.9 mph N/A   Overcast
4:35 PM 71.4 °F 54.5 °F 55% 30.08 in 10.0 mi ENE 12.7 mph - N/A   Overcast
4:55 PM 70.9 °F 54.5 °F 56% 30.07 in 10.0 mi NE 10.4 mph 16.1 mph N/A   Overcast
5:15 PM 71.2 °F 53.6 °F 54% 30.08 in 10.0 mi NE 10.4 mph 17.3 mph N/A   Overcast
5:35 PM 70.0 °F 53.8 °F 56% 30.08 in 10.0 mi ENE 9.2 mph - N/A   Overcast
5:56 PM 69.8 °F 52.0 °F 53% 30.08 in 10.0 mi ENE 9.2 mph - N/A   Overcast
6:15 PM 69.8 °F 51.4 °F 52% 30.08 in 10.0 mi NE 9.2 mph - N/A   Overcast
6:35 PM 68.9 °F 50.2 °F 51% 30.08 in 10.0 mi NE 9.2 mph - N/A   Overcast
6:55 PM 68.5 °F 50.4 °F 52% 30.08 in 10.0 mi NE 6.9 mph - N/A   Overcast
7:16 PM 68.5 °F 48.2 °F 48% 30.07 in 10.0 mi NE 10.4 mph 16.1 mph N/A   Overcast
7:35 PM 68.2 °F 47.5 °F 47% 30.08 in 10.0 mi NE 9.2 mph - N/A   Overcast
7:55 PM 68.0 °F 46.6 °F 46% 30.07 in 10.0 mi NE 10.4 mph - N/A   Overcast
8:15 PM 67.3 °F 44.8 °F 44% 30.08 in 10.0 mi NE 11.5 mph 16.1 mph N/A   Overcast
8:35 PM 66.7 °F 45.9 °F 47% 30.09 in 10.0 mi NE 9.2 mph - N/A   Overcast
8:56 PM 66.0 °F 45.0 °F 47% 30.09 in 10.0 mi NE 8.1 mph - N/A   Mostly Cloudy
9:15 PM 64.0 °F 46.6 °F 53% 30.09 in 10.0 mi NE 4.6 mph - N/A   Scattered Clouds
9:35 PM 63.0 °F 47.7 °F 57% 30.08 in 10.0 mi NE 4.6 mph - N/A   Scattered Clouds
9:55 PM 62.2 °F 48.4 °F 60% 30.08 in 10.0 mi NE 5.8 mph - N/A   Clear
10:16 PM 60.4 °F 49.1 °F 66% 30.09 in 10.0 mi NE 3.5 mph - N/A   Clear
10:35 PM 61.3 °F 49.1 °F 64% 30.10 in 10.0 mi NE 5.8 mph - N/A   Clear
10:56 PM 60.8 °F 50.0 °F 68% 30.10 in 10.0 mi NE 4.6 mph - N/A   Clear
11:15 PM 60.3 °F 51.1 °F 72% 30.10 in 10.0 mi NE 4.6 mph - N/A   Clear
11:36 PM 58.8 °F 53.1 °F 81% 30.09 in 10.0 mi ENE 4.6 mph - N/A   Clear
11:55 PM 58.1 °F 53.6 °F 85% 30.09 in 10.0 mi East 3.5 mph - N/A   Clear